Find Palapa A2

NORAD ID: 9862 Int'l Des: 1977-018 Owner: PER Country: ID operational
HEOCIRCULAR

Current View

Loading 3D Globe...

About Palapa A2

Palapa A2 (NORAD 9862) is a satellite by PER of ID. It operates in HEO, CIRCULAR orbit

Upcoming Passes

Passes for default location (London). Set your location on the main map for personalized predictions.

Altitude History

Loading altitude history...

Two-Line Element Set

1 9862U 77018A 26195.12850166 -.00000154 00000-0 00000+0 0 9990
2 9862 8.6114 310.1401 0004244 136.1586 237.7407 1.00056525143384
Epoch: Jul 14, 2026 • Age: 6 hours

Current Status

Altitude 35830.9 km
Apogee / Perigee N/A
Velocity 3.07 km/s
Sub-Earth Point 8.42°N, 14.31°W
Type other

Most Searched